Year,Month,Day,Hour,Minute,Value (Times are PST for temperature in C)
2006,07,21,11,57,27.90
2006,07,21,11,58,27.90
2006,07,21,11,59,28.00
2006,07,21,12,00,28.00
2006,07,21,12,01,28.10
2006,07,21,12,02,28.20
2006,07,21,12,03,28.20
2006,07,21,12,04,28.30
2006,07,21,12,05,28.40
2006,07,21,12,06,28.40
2006,07,21,12,07,28.50
2006,07,21,12,08,28.60
2006,07,21,12,09,28.60
2006,07,21,12,10,28.70
2006,07,21,12,11,28.70
2006,07,21,12,12,28.60
2006,07,21,12,13,28.60
2006,07,21,12,14,28.50
2006,07,21,12,15,28.40
2006,07,21,12,16,28.30
2006,07,21,13,05,30.10
2006,07,21,13,06,30.10
2006,07,21,13,08,30.20
2006,07,21,13,09,30.20
2006,07,21,13,10,30.20
2006,07,21,14,43,31.00
2006,07,21,14,44,31.00
2006,07,21,14,45,30.90
2006,07,21,14,46,30.90
2006,07,21,14,47,30.90
2006,07,21,14,48,30.90
2006,07,21,14,49,30.90
2006,07,21,14,50,30.90
2006,07,21,14,51,30.90
2006,07,21,14,52,31.00
2006,07,21,14,53,31.00
2006,07,21,14,54,31.10
2006,07,21,14,55,31.10
2006,07,21,14,56,31.10
2006,07,21,14,57,31.20
2006,07,21,14,58,31.10
2006,07,21,14,59,30.90
2006,07,21,15,00,30.70
2006,07,21,15,01,30.70
2006,07,21,15,02,30.70
2006,07,21,15,03,30.70
2006,07,21,15,04,30.70
2006,07,21,15,05,30.80
2006,07,21,15,06,30.80
2006,07,21,15,07,30.80
2006,07,21,15,08,30.90
2006,07,21,15,09,31.00
2006,07,21,15,10,31.10
2006,07,21,15,11,31.20
2006,07,21,15,12,31.20
2006,07,21,15,13,31.30
2006,07,21,15,14,31.40
2006,07,21,15,15,31.40
2006,07,21,15,16,31.50
2006,07,21,15,17,31.60
2006,07,21,15,18,31.60
2006,07,21,15,19,31.70
2006,07,21,15,20,31.70
2006,07,21,15,21,31.80
2006,07,21,15,22,31.80
2006,07,21,15,23,31.70
2006,07,21,15,24,31.50
2006,07,21,15,25,31.40
2006,07,21,15,26,31.40
2006,07,21,15,27,31.30
2006,07,21,15,28,31.20
2006,07,21,15,29,30.90
2006,07,21,15,30,30.80
2006,07,21,15,31,30.70
2006,07,21,15,32,30.50
2006,07,21,15,33,30.20
2006,07,21,15,34,29.80
2006,07,21,15,35,29.50
2006,07,21,15,36,29.10
2006,07,21,15,37,28.90
2006,07,21,15,38,28.60
2006,07,21,15,39,28.50
2006,07,21,15,40,28.40
2006,07,21,15,41,28.20
2006,07,21,15,42,28.30
2006,07,21,15,43,28.50
2006,07,21,15,44,28.60
2006,07,21,15,45,28.80
2006,07,21,15,46,28.90
2006,07,21,15,47,29.10
2006,07,21,15,48,29.30
2006,07,21,15,49,29.50
2006,07,21,15,50,29.80
2006,07,21,15,51,30.00
2006,07,21,15,52,30.20
2006,07,21,15,53,30.50
2006,07,21,15,54,30.60
2006,07,21,15,55,30.70
2006,07,21,15,56,30.80
2006,07,21,15,57,30.90
2006,07,21,15,58,31.00
2006,07,21,15,59,31.20
2006,07,21,16,00,31.30
2006,07,21,16,01,31.50
2006,07,21,16,02,31.60
2006,07,21,16,03,31.70
2006,07,21,16,04,31.80
2006,07,21,16,05,31.80
2006,07,21,16,06,31.90
2006,07,21,16,07,31.90
2006,07,21,16,08,32.10
2006,07,21,16,09,32.10
2006,07,21,16,10,32.20
2006,07,21,16,11,32.20
2006,07,21,16,12,32.30
2006,07,21,16,13,32.30
2006,07,21,16,14,32.30
2006,07,21,16,15,32.30
2006,07,21,16,16,32.30
2006,07,21,16,17,32.30
2006,07,21,16,18,32.30
2006,07,21,16,19,32.30
2006,07,21,16,20,32.30
2006,07,21,16,21,32.30
2006,07,21,16,22,32.30
2006,07,21,16,23,32.30
2006,07,21,16,24,32.30
2006,07,21,16,25,32.20
2006,07,21,16,26,32.20
2006,07,21,16,27,32.20
2006,07,21,16,28,32.20
2006,07,21,16,29,32.20
2006,07,21,16,30,32.20
2006,07,21,16,31,32.30
2006,07,21,16,32,32.30
2006,07,21,16,33,32.40
2006,07,21,16,34,32.40
2006,07,21,16,35,32.40
2006,07,21,16,36,32.50
2006,07,21,16,37,32.50
2006,07,21,16,38,32.60
2006,07,21,16,39,32.60
2006,07,21,16,40,32.60
2006,07,21,16,41,32.70
2006,07,21,16,42,32.90
2006,07,21,16,43,32.80
2006,07,21,16,44,32.80
2006,07,21,16,45,32.90
2006,07,21,16,46,32.90
2006,07,21,16,47,32.90
2006,07,21,16,48,32.80
2006,07,21,16,49,32.70
2006,07,21,16,50,32.50
2006,07,21,16,51,32.40
2006,07,21,16,52,32.30
2006,07,21,16,53,32.20
2006,07,21,16,54,32.10
2006,07,21,16,55,31.60
2006,07,21,16,56,31.40
2006,07,21,16,57,31.40
2006,07,21,16,58,29.50
2006,07,21,16,59,29.30
2006,07,21,17,00,28.60
2006,07,21,17,01,27.40
2006,07,21,17,02,26.90
2006,07,21,17,03,26.40
2006,07,21,17,04,26.00
2006,07,21,17,05,25.40
2006,07,21,17,06,24.90
2006,07,21,17,07,24.60
2006,07,21,17,08,24.40
2006,07,21,17,09,24.30
2006,07,21,17,10,24.30
2006,07,21,17,11,24.30
2006,07,21,17,12,24.30
2006,07,21,17,13,24.30
2006,07,21,17,14,24.40
2006,07,21,17,15,24.60
2006,07,21,17,16,24.70
2006,07,21,17,17,24.80
2006,07,21,17,18,24.90
2006,07,21,17,19,25.10
2006,07,21,17,20,25.30
2006,07,21,17,21,25.50
2006,07,21,17,22,25.70
2006,07,21,17,23,26.00
2006,07,21,17,24,26.20
2006,07,21,17,25,26.40
2006,07,21,17,26,26.60
2006,07,21,17,27,26.60
2006,07,21,17,28,26.70
2006,07,21,17,29,26.80
2006,07,21,17,30,27.00
2006,07,21,17,31,27.10
2006,07,21,17,32,27.20
2006,07,21,17,33,27.30
2006,07,21,17,34,27.30
2006,07,21,17,35,27.20
2006,07,21,17,36,27.10
2006,07,21,17,37,27.10
2006,07,21,17,38,27.10
2006,07,21,17,39,27.00
2006,07,21,17,40,26.90
2006,07,21,17,41,26.90
2006,07,21,17,42,26.90
2006,07,21,17,43,26.90
2006,07,21,17,44,26.80
2006,07,21,17,45,26.80
2006,07,21,17,46,26.80
2006,07,21,17,47,26.80
2006,07,21,17,48,26.90
2006,07,21,17,49,26.90
2006,07,21,17,50,26.90
2006,07,21,17,51,26.60
2006,07,21,17,52,26.60
2006,07,21,17,53,26.40
2006,07,21,17,54,26.00
2006,07,21,17,55,26.00
2006,07,21,17,56,26.00
2006,07,21,17,57,26.00
2006,07,21,17,58,26.00
2006,07,21,17,59,26.10
2006,07,21,18,00,26.10
2006,07,21,18,01,26.30
2006,07,21,18,02,26.40
2006,07,21,18,03,26.60
2006,07,21,18,04,26.60
2006,07,21,18,05,26.60
2006,07,21,18,06,26.60
2006,07,21,18,07,26.60
2006,07,21,18,08,26.70
2006,07,21,18,09,26.70
2006,07,21,18,10,26.80
2006,07,21,18,11,26.90
2006,07,21,18,12,27.10
2006,07,21,18,13,27.20
2006,07,21,18,14,27.30
2006,07,21,18,15,27.30
2006,07,21,18,16,27.50
2006,07,21,18,17,27.60
2006,07,21,18,18,27.70
2006,07,21,18,19,27.70
2006,07,21,18,20,27.70
2006,07,21,18,21,27.70
2006,07,21,18,22,27.70
2006,07,21,18,23,27.70
2006,07,21,18,24,27.70
2006,07,21,18,25,27.70
2006,07,21,18,26,27.70
2006,07,21,18,27,27.70
2006,07,21,18,28,27.70
2006,07,21,18,29,27.70
2006,07,21,18,30,27.70
2006,07,21,18,31,27.60
2006,07,21,18,32,27.70
2006,07,21,18,33,27.60
2006,07,21,18,34,27.50
2006,07,21,18,35,27.40
2006,07,21,18,36,27.40
2006,07,21,18,37,27.30
2006,07,21,18,38,27.30
2006,07,21,18,39,27.30
2006,07,21,18,40,27.30
2006,07,21,18,41,27.30
2006,07,21,18,42,27.30
2006,07,21,18,43,27.30
2006,07,21,18,44,27.30
2006,07,21,18,45,27.30
2006,07,21,18,46,27.30
2006,07,21,18,47,27.30
2006,07,21,18,48,27.30
2006,07,21,18,49,27.30
2006,07,21,18,50,27.30
2006,07,21,18,51,27.30
2006,07,21,18,52,27.30
2006,07,21,18,53,27.30
2006,07,21,18,54,27.30
2006,07,21,18,55,27.30
2006,07,21,18,56,27.30
2006,07,21,18,57,27.30
2006,07,21,18,58,27.30
2006,07,21,18,59,27.40
2006,07,21,19,00,27.40
2006,07,21,19,01,27.30
2006,07,21,19,02,27.30
2006,07,21,19,03,27.30
2006,07,21,19,04,27.30
2006,07,21,19,05,27.30
2006,07,21,19,06,27.30
2006,07,21,19,07,27.30
2006,07,21,19,08,27.30
2006,07,21,19,09,27.30
2006,07,21,19,10,27.40
2006,07,21,19,11,27.40
2006,07,21,19,12,27.50
2006,07,21,19,13,27.60
2006,07,21,19,14,27.60
2006,07,21,19,15,27.60
2006,07,21,19,16,27.70
2006,07,21,19,17,27.70
2006,07,21,19,18,27.80
2006,07,21,19,19,27.80
2006,07,21,19,20,27.80
2006,07,21,19,21,27.80
2006,07,21,19,22,27.80
2006,07,21,19,23,27.80
2006,07,21,19,24,27.80
2006,07,21,19,25,27.70
2006,07,21,19,26,27.70
2006,07,21,19,27,27.60
2006,07,21,19,28,27.60
2006,07,21,19,29,27.60
2006,07,21,19,30,27.40
2006,07,21,19,31,27.40
2006,07,21,19,32,27.30
2006,07,21,19,33,27.30
2006,07,21,19,34,27.30
2006,07,21,19,35,27.20
2006,07,21,19,36,27.20
2006,07,21,19,37,27.20
2006,07,21,19,38,27.20
2006,07,21,19,39,27.20
2006,07,21,19,40,27.20
2006,07,21,19,41,27.20
2006,07,21,19,42,27.20
2006,07,21,19,43,27.30
2006,07,21,19,44,27.20
2006,07,21,19,45,27.20
2006,07,21,19,46,27.20
2006,07,21,19,47,27.10
2006,07,21,19,48,27.10
2006,07,21,19,49,27.10
2006,07,21,19,50,27.10
2006,07,21,19,51,27.00
2006,07,21,19,52,26.90
2006,07,21,19,53,26.90
2006,07,21,19,54,26.90
2006,07,21,19,55,26.90
2006,07,21,19,56,26.80
2006,07,21,19,57,26.80
2006,07,21,19,58,26.80
2006,07,21,19,59,26.80
2006,07,21,20,00,26.80
2006,07,21,20,01,26.80
2006,07,21,20,02,26.80
2006,07,21,20,03,26.70
2006,07,21,20,04,26.70
2006,07,21,20,05,26.70
2006,07,21,20,06,26.70
2006,07,21,20,07,26.70
2006,07,21,20,08,26.60
2006,07,21,20,09,26.60
2006,07,21,20,10,26.60
2006,07,21,20,11,26.60
2006,07,21,20,12,26.40
2006,07,21,20,13,26.20
2006,07,21,20,14,26.00
2006,07,21,20,15,25.80
2006,07,21,20,16,25.60
2006,07,21,20,17,25.30
2006,07,21,20,18,25.10
2006,07,21,20,19,24.90
2006,07,21,20,20,24.80
2006,07,21,20,21,24.70
2006,07,21,20,22,24.60
2006,07,21,20,23,24.50
2006,07,21,20,24,24.50
2006,07,21,20,25,24.40
2006,07,21,20,26,24.40
2006,07,21,20,27,24.30
2006,07,21,20,28,24.20
2006,07,21,20,29,24.20
2006,07,21,20,30,24.20
2006,07,21,20,31,24.20
2006,07,21,20,32,24.10
2006,07,21,20,33,24.10
2006,07,21,20,34,24.10
2006,07,21,20,35,24.10
2006,07,21,20,36,24.20
2006,07,21,20,37,24.20
2006,07,21,20,38,24.20
2006,07,21,20,39,24.20
2006,07,21,20,40,24.30
2006,07,21,20,41,24.30
2006,07,21,20,42,24.30
2006,07,21,20,43,24.40
2006,07,21,20,44,24.50
2006,07,21,20,45,24.50
2006,07,21,20,46,24.60
2006,07,21,20,47,24.60
2006,07,21,20,48,24.70
2006,07,21,20,49,24.70
2006,07,21,20,50,24.70
2006,07,21,20,51,24.80
2006,07,21,20,52,24.80
2006,07,21,20,53,24.90
2006,07,21,20,54,24.90
2006,07,21,20,55,24.90
2006,07,21,20,56,24.90
2006,07,21,20,57,25.00
2006,07,21,20,58,25.00
2006,07,21,20,59,25.00
2006,07,21,21,00,25.00
2006,07,21,21,01,25.00
2006,07,21,21,02,25.10
2006,07,21,21,03,25.10
2006,07,21,21,04,25.10
2006,07,21,21,05,25.10
2006,07,21,21,06,25.10
2006,07,21,21,07,25.20
2006,07,21,21,08,25.20
2006,07,21,21,09,25.20
2006,07,21,21,10,25.30
2006,07,21,21,11,25.30
2006,07,21,21,12,25.30
2006,07,21,21,13,25.30
2006,07,21,21,14,25.30
2006,07,21,21,15,25.30
2006,07,21,21,16,25.30
2006,07,21,21,17,25.30
2006,07,21,21,18,25.40
2006,07,21,21,19,25.40
2006,07,21,21,20,25.40
2006,07,21,21,21,25.40
2006,07,21,21,22,25.40
2006,07,21,21,23,25.40
2006,07,21,21,24,25.50
2006,07,21,21,25,25.40
2006,07,21,21,26,25.40
2006,07,21,21,27,25.40
2006,07,21,21,28,25.40
2006,07,21,21,29,25.30
2006,07,21,21,30,25.30
2006,07,21,21,31,25.20
2006,07,21,21,32,25.10
2006,07,21,21,33,25.00
2006,07,21,21,34,24.90
2006,07,21,21,35,24.90
2006,07,21,21,36,24.80
2006,07,21,21,37,24.70
2006,07,21,21,38,24.60
2006,07,21,21,39,24.50
2006,07,21,21,40,24.40
2006,07,21,21,41,24.40
2006,07,21,21,42,24.30
2006,07,21,21,43,24.30
2006,07,21,21,44,24.20
2006,07,21,21,45,24.10
2006,07,21,21,46,24.10
2006,07,21,21,47,24.10
2006,07,21,21,48,24.00
2006,07,21,21,49,23.90
2006,07,21,21,50,23.80
2006,07,21,21,51,23.70
2006,07,21,21,52,23.70
2006,07,21,21,53,23.60
2006,07,21,21,54,23.50
2006,07,21,21,55,23.40
2006,07,21,21,56,23.30
2006,07,21,21,57,23.30
2006,07,21,21,58,23.20
2006,07,21,21,59,23.10
2006,07,21,22,00,23.10
2006,07,21,22,01,23.00
2006,07,21,22,02,22.90
2006,07,21,22,03,22.80
2006,07,21,22,04,22.80
2006,07,21,22,05,22.70
2006,07,21,22,06,22.60
2006,07,21,22,07,22.60
2006,07,21,22,08,22.60
2006,07,21,22,09,22.50
2006,07,21,22,10,22.50
2006,07,21,22,11,22.50
2006,07,21,22,12,22.50
2006,07,21,22,13,22.50
2006,07,21,22,14,22.50
2006,07,21,22,15,22.50
2006,07,21,22,16,22.50
2006,07,21,22,17,22.50
2006,07,21,22,18,22.50
2006,07,21,22,19,22.50
2006,07,21,22,20,22.60
2006,07,21,22,21,22.60
2006,07,21,22,22,22.60
2006,07,21,22,23,22.60
2006,07,21,22,24,22.70
2006,07,21,22,25,22.70
2006,07,21,22,26,22.80
2006,07,21,22,27,22.80
2006,07,21,22,28,22.80
2006,07,21,22,29,22.80
2006,07,21,22,30,22.80
2006,07,21,22,31,22.80
2006,07,21,22,32,22.80
2006,07,21,22,33,22.80
2006,07,21,22,34,22.80
2006,07,21,22,35,22.70
2006,07,21,22,36,22.70
2006,07,21,22,37,22.70
2006,07,21,22,38,22.70
2006,07,21,22,39,22.70
2006,07,21,22,40,22.70
2006,07,21,22,41,22.70
2006,07,21,22,42,22.70
2006,07,21,22,43,22.70
2006,07,21,22,44,22.70
2006,07,21,22,45,22.70
2006,07,21,22,46,22.70
2006,07,21,22,47,22.70
2006,07,21,22,48,22.70
2006,07,21,22,49,22.70
2006,07,21,22,50,22.70
2006,07,21,22,51,22.80
2006,07,21,22,52,22.80
2006,07,21,22,53,22.80
2006,07,21,22,54,22.80
2006,07,21,22,55,22.80
2006,07,21,22,56,22.80
2006,07,21,22,57,22.80
2006,07,21,22,58,22.80
2006,07,21,22,59,22.80
2006,07,21,23,00,22.80
2006,07,21,23,01,22.80
2006,07,21,23,02,22.80
2006,07,21,23,03,22.80
2006,07,21,23,04,22.80
2006,07,21,23,05,22.80
2006,07,21,23,06,22.80
2006,07,21,23,07,22.70
2006,07,21,23,08,22.70
2006,07,21,23,09,22.60
2006,07,21,23,10,22.50
2006,07,21,23,11,22.40
2006,07,21,23,12,22.40
2006,07,21,23,13,22.30
2006,07,21,23,14,22.30
2006,07,21,23,15,22.20
2006,07,21,23,16,22.20
2006,07,21,23,17,22.10
2006,07,21,23,18,22.10
2006,07,21,23,19,22.00
2006,07,21,23,20,22.00
2006,07,21,23,21,21.90
2006,07,21,23,22,21.90
2006,07,21,23,23,21.80
2006,07,21,23,24,21.70
2006,07,21,23,25,21.70
2006,07,21,23,26,21.70
2006,07,21,23,27,21.60
2006,07,21,23,28,21.60
2006,07,21,23,29,21.60
2006,07,21,23,30,21.60
2006,07,21,23,31,21.40
2006,07,21,23,32,21.40
2006,07,21,23,33,21.40
2006,07,21,23,34,21.30
2006,07,21,23,35,21.30
2006,07,21,23,36,21.30
2006,07,21,23,37,21.30
2006,07,21,23,38,21.30
2006,07,21,23,39,21.30
2006,07,21,23,40,21.30
2006,07,21,23,41,21.30
2006,07,21,23,42,21.30
2006,07,21,23,43,21.20
2006,07,21,23,44,21.20
2006,07,21,23,45,21.20
2006,07,21,23,46,21.20
2006,07,21,23,47,21.20
2006,07,21,23,48,21.20
2006,07,21,23,49,21.20
2006,07,21,23,50,21.20
2006,07,21,23,51,21.20
2006,07,21,23,52,21.10
2006,07,21,23,53,21.10
2006,07,21,23,54,21.10
2006,07,21,23,55,21.10
2006,07,21,23,56,21.00
2006,07,21,23,57,21.00
2006,07,21,23,58,21.00
2006,07,21,23,59,21.00
